カタログに戻る

COSMOS 1275 DEB

運用中PO
NORAD 12732·DEBRIS·🇷🇺 Russia

打ち上げ Jun 4, 1981 から Plesetsk Cosmodrome

Loading…

次のパス (今後24時間)

TLE

最新Source: Space-Track

元期: Sep 14, 2026, 14:38 UTC

1 12732U 81053BZ  26257.61040720  .00000279  00000-0  20529-3 0  9993
2 12732  82.9920 356.0700 0051734 199.5012 225.5151 13.91634485283586

AllMySatでCOSMOS 1275 DEBをリアルタイム追跡

Download on the App Store